Change the Weather History Date:

Sunday, September 7, 2014

  Actual Average Record
Temperature  
Mean Temperature 83 °F 81 °F  
Max Temperature 92 °F 90 °F 100 °F (1912)
Min Temperature 73 °F 72 °F 55 °F (2011)
Degree Days  
Heating Degree Days 0 0  
Month to date heating degree days 0 0  
Since 1 July heating degree days 0 0  
Cooling Degree Days 18 16  
Month to date cooling degree days 127 115  
Year to date cooling degree days 2137 2244  
Growing Degree Days 32 (Base 50)    
Moisture  
Dew Point 73 °F    
Average Humidity 73    
Maximum Humidity 94    
Minimum Humidity 52    
Precipitation  
Precipitation T in 0.19 in 1.91 in (1944)
Month to date precipitation 2.18 1.31  
Year to date precipitation 54.25 39.53  
Snow  
Snow 0.00 in 0.00 in 0.00 in ()
Month to date snowfall 0.0 0.0  
Since 1 July snowfall 0.0 0.0  
Since 1 September snowfall 0.0 0.0  
Snow Depth 0.00 in    
Sea Level Pressure  
Sea Level Pressure 30.00 in    
Wind  
Wind Speed 4 mph (North)    
Max Wind Speed 18 mph    
Max Gust Speed 24 mph    
Visibility 10 miles    
Events Thunderstorm    
T = Trace of Precipitation, MM = Missing Value Source: NWS Daily Summary

Daily Weather History Graph

Daily Weather History Graph

Search for Another Location

Airport or City:

Trip Planner

Search our weather history database for the weather conditions in past years. The results will help you decide how hot, cold, wet, or windy it might be!

Date:

Astronomy

Sep. 07, 2014 Rise Set
Actual Time 6:53 AM CDT 7:28 PM CDT
Civil Twilight 6:28 AM CDT 7:52 PM CDT
Nautical Twilight 6:00 AM CDT 8:20 PM CDT
Astronomical Twilight 5:31 AM CDT 8:49 PM CDT
Moon 6:25 PM CDT (9/7) 5:11 AM CDT (9/7)
Length of Visible Light 13h 23m
Length of Day
12h 35m
Waxing Gibbous, 97% of the Moon is Illuminated
Sep 7
Waxing Gibbous
Sep 8
Full
Sep 15
Last Quarter
Sep 24
New
Oct 1
First Quarter

Hourly Weather History & Observations

Time (CDT) Temp. Heat Index Dew Point Humidity Pressure Visibility Wind Dir Wind Speed Gust Speed Precip Events Conditions
12:53 AM 75.0 °F - 72.0 °F 90% 30.04 in 10.0 mi NNE 3.5 mph - N/A   Clear
1:53 AM 73.9 °F - 72.0 °F 93% 30.04 in 10.0 mi NNE 3.5 mph - N/A   Clear
2:53 AM 73.9 °F - 72.0 °F 93% 30.02 in 10.0 mi Calm Calm - N/A   Clear
3:53 AM 73.0 °F - 72.0 °F 96% 30.01 in 10.0 mi Calm Calm - N/A   Clear
4:53 AM 73.0 °F - 72.0 °F 96% 30.01 in 10.0 mi Calm Calm - N/A   Clear
5:53 AM 73.0 °F - 71.1 °F 93% 30.02 in 9.0 mi Calm Calm - N/A   Clear
6:53 AM 73.0 °F - 71.1 °F 93% 30.03 in 7.0 mi Calm Calm - N/A   Clear
7:53 AM 75.0 °F - 72.0 °F 90% 30.04 in 10.0 mi Calm Calm - N/A   Clear
8:53 AM 77.0 °F - 73.0 °F 88% 30.04 in 10.0 mi Calm Calm - N/A   Clear
9:53 AM 80.1 °F 84.5 °F 73.9 °F 81% 30.05 in 10.0 mi ENE 3.5 mph - N/A   Clear
10:53 AM 82.9 °F 90.2 °F 75.0 °F 77% 30.05 in 10.0 mi Calm Calm - N/A   Clear
11:53 AM 86.0 °F 93.8 °F 73.9 °F 67% 30.05 in 10.0 mi North 3.5 mph - N/A   Clear
12:53 PM 89.1 °F 98.0 °F 73.9 °F 61% 30.03 in 10.0 mi Calm Calm - N/A   Clear
1:53 PM 91.0 °F 98.2 °F 72.0 °F 53% 30.00 in 10.0 mi ENE 3.5 mph - N/A   Clear
2:20 PM 91.0 °F 98.2 °F 72.0 °F 53% 29.96 in 10.0 mi Calm Calm - N/A Thunderstorm Scattered Clouds
2:53 PM 86.0 °F 95.1 °F 75.0 °F 70% 29.98 in 10.0 mi ENE 17.3 mph 23.0 mph N/A Thunderstorm Mostly Cloudy
3:03 PM 86.0 °F 93.0 °F 73.0 °F 65% 29.96 in 10.0 mi NE 16.1 mph - N/A Thunderstorm Thunderstorm
3:53 PM 84.2 °F 90.9 °F 73.4 °F 70% 29.93 in 10.0 mi NNW 5.8 mph - N/A   Clear
4:53 PM 86.0 °F 93.0 °F 73.0 °F 65% 29.94 in 10.0 mi NE 8.1 mph - N/A   Clear
5:53 PM 84.0 °F 91.9 °F 75.0 °F 74% 29.96 in 10.0 mi SE 3.5 mph - N/A   Partly Cloudy
6:22 PM 80.1 °F 84.5 °F 73.9 °F 81% 29.96 in 10.0 mi WSW 9.2 mph 17.3 mph N/A   Mostly Cloudy
6:45 PM 80.1 °F 84.2 °F 73.0 °F 79% 29.96 in 10.0 mi West 5.8 mph - N/A   Scattered Clouds
6:53 PM 79.0 °F - 73.0 °F 82% 29.99 in 10.0 mi West 6.9 mph - N/A   Mostly Cloudy
7:32 PM 78.1 °F - 72.0 °F 81% 29.97 in 10.0 mi NNW 13.8 mph 21.9 mph N/A Thunderstorm Thunderstorm
7:53 PM 78.1 °F - 70.0 °F 76% 29.99 in 10.0 mi North 12.7 mph - N/A   Scattered Clouds
8:29 PM 77.0 °F - 72.0 °F 84% 29.96 in 10.0 mi North 5.8 mph - N/A Thunderstorm Clear
8:44 PM 77.0 °F - 72.0 °F 84% 29.96 in 10.0 mi Calm Calm - N/A   Clear
8:53 PM 77.0 °F - 72.0 °F 84% 29.99 in 10.0 mi NE 3.5 mph - N/A   Clear
9:53 PM 77.0 °F - 71.6 °F 83% 29.99 in 10.0 mi Calm Calm - N/A   Scattered Clouds
10:04 PM 77.0 °F - 72.0 °F 84% 29.98 in 10.0 mi NW 3.5 mph - N/A   Mostly Cloudy
10:11 PM 75.9 °F - 72.0 °F 87% 29.99 in 10.0 mi West 3.5 mph - N/A   Scattered Clouds
10:20 PM 75.9 °F - 72.0 °F 87% 29.99 in 10.0 mi Calm Calm - N/A   Mostly Cloudy
11:13 PM 77.0 °F - 73.0 °F 88% 30.00 in 9.0 mi NNW 4.6 mph - N/A   Scattered Clouds
11:53 PM 75.9 °F - 73.9 °F 94% 30.02 in 7.0 mi NW 4.6 mph - N/A   Clear